GFSNGP_sfc_thetae_198.txt.gz
Theta_e
298 297 297 297 297 298 295 296 290 292 295 296 299 300 300 301 303 307 309 314 317 322 325 332 334 335 333 334 338 338 334 325 321 320 320 318 314 313 311 309 308 309 308 307
295 298 297 296 297 300 298 297 295 297 297 301 304 304 299 299 301 304 306 309 313 321 327 328 328 329 330 330 326 327 321 317 316 313 312 309 308 309 306 306 306 306 305 305
292 297 298 292 297 299 299 299 297 293 300 303 302 303 299 298 300 303 306 307 310 315 317 322 323 325 322 321 320 317 314 312 312 308 304 304 305 305 303 303 305 303 303 303
292 294 287 298 303 303 300 300 300 300 303 305 304 305 302 301 300 301 304 306 308 312 315 317 316 315 315 315 314 311 309 308 306 304 302 303 303 303 303 304 304 303 304 303
290 291 295 297 300 300 299 298 302 302 303 304 306 306 303 302 302 302 304 307 309 312 315 315 314 314 312 311 311 308 306 306 304 304 301 301 300 302 304 304 303 303 303 301
293 285 287 298 303 306 306 293 305 305 303 303 304 297 300 304 303 303 305 306 308 310 313 314 313 312 309 307 306 304 304 305 304 303 301 299 299 300 301 302 303 304 303 303
292 291 295 303 304 304 292 296 307 306 304 306 301 302 304 302 302 304 307 306 306 307 308 311 313 311 307 304 302 301 300 299 299 298 297 297 297 299 300 301 302 303 301 302
294 291 287 306 303 295 303 308 308 308 306 307 307 307 305 302 301 302 303 305 305 305 305 307 308 304 301 299 300 300 299 296 296 297 298 298 297 298 299 300 300 301 299 298
297 296 306 306 305 309 311 305 309 309 309 309 308 305 306 303 304 301 302 303 305 305 304 304 305 302 298 298 298 297 296 295 294 296 297 298 298 300 300 301 298 298 297 295
298 301 302 304 305 306 306 307 311 311 311 310 308 308 304 304 302 300 301 301 302 302 302 302 302 300 298 298 296 294 293 292 293 294 295 298 298 300 300 299 297 297 295 295
299 302 303 303 307 309 310 311 311 311 311 311 310 308 304 303 301 301 301 300 300 299 300 301 301 300 299 298 296 293 292 292 293 295 296 298 300 300 300 301 297 296 297 297
297 302 302 303 307 309 310 310 311 310 310 311 311 309 305 304 302 301 300 300 298 298 298 299 300 299 299 298 296 294 293 293 293 295 297 296 296 295 290 291 290 290 290 292
303 307 305 307 308 310 310 311 312 312 311 310 311 311 307 305 303 301 300 299 298 297 297 298 299 299 300 298 297 295 293 293 293 294 294 296 296 294 292 290 289 288 287 287
307 306 304 306 305 309 310 312 312 312 312 311 311 310 307 306 305 303 299 299 298 298 297 297 297 297 300 299 297 295 293 293 293 294 295 296 296 295 294 292 291 290 289 288
305 307 307 308 308 308 311 311 310 311 311 310 312 309 307 304 304 303 301 299 298 297 296 296 295 295 298 298 296 293 292 292 293 295 296 297 297 296 295 295 293 291 290 289
305 306 306 306 306 307 308 309 309 310 310 310 311 309 307 306 305 305 303 300 297 296 296 296 294 295 297 297 296 294 292 291 293 295 296 297 298 297 296 295 295 294 293 293
303 303 304 304 306 308 308 309 311 311 311 309 309 311 308 305 305 304 303 302 298 296 296 295 294 294 294 294 294 292 291 293 290 296 297 298 298 297 297 296 296 295 296 292
308 308 308 308 308 309 308 310 312 311 310 310 310 310 308 305 303 303 302 301 298 295 294 294 294 294 294 293 293 293 293 296 297 297 297 298 298 298 297 297 296 294 293 292
310 308 308 308 308 311 311 312 311 310 310 310 308 308 308 307 304 302 301 299 296 293 293 294 292 293 292 292 293 294 295 296 297 298 298 294 298 298 297 296 295 295 295 295
309 309 308 308 307 308 309 309 309 308 309 310 308 307 306 305 303 301 300 298 297 295 294 293 293 292 292 292 292 295 296 297 298 297 297 298 298 298 297 293 296 296 296 295
306 307 307 306 306 306 308 307 305 306 307 308 307 306 304 304 303 300 297 294 294 295 294 292 292 292 293 292 295 296 297 297 297 297 298 298 297 297 297 297 296 296 296 295
304 305 306 305 305 305 305 305 304 305 305 306 307 306 302 300 300 300 299 296 294 289 294 293 292 289 291 289 296 297 297 296 296 297 297 298 297 297 297 297 296 296 296 296
303 303 302 302 303 304 302 302 302 301 303 305 305 303 301 300 300 297 294 296 294 292 295 294 288 287 286 298 297 297 296 296 296 297 297 298 297 297 297 296 296 296 296 295
296 297 297 300 301 300 298 299 301 301 303 305 305 304 300 298 297 301 298 292 290 293 298 294 291 286 289 298 298 298 297 297 296 298 297 292 297 297 296 296 295 295 295 294
295 295 296 297 296 297 297 299 300 300 301 302 302 301 302 301 299 299 300 303 290 297 302 287 287 287 301 300 299 299 297 296 297 297 298 298 296 295 296 296 295 295 295 294
294 295 294 294 295 296 297 298 296 297 299 296 296 298 297 296 295 295 295 294 301 297 301 295 300 303 304 302 300 299 297 296 295 296 297 298 296 295 295 296 295 295 295 294
294 291 294 294 294 295 295 295 295 295 295 295 293 295 294 294 293 293 292 296 299 299 300 303 305 302 304 304 301 298 296 297 295 297 297 299 299 298 298 296 295 295 295 294

GFSNGP_sfc_thetae_201.txt.gz
Theta_e
297 299 301 299 298 299 297 299 291 295 296 300 303 302 303 302 301 303 305 309 312 320 325 324 331 336 337 339 338 336 331 327 325 322 322 319 319 318 316 317 314 311 309 307
297 299 300 297 300 299 298 300 296 298 299 304 307 308 303 301 300 301 303 306 309 316 323 312 321 333 333 331 331 326 323 321 320 318 318 314 310 310 311 310 309 307 305 304
292 299 298 295 299 298 298 300 299 292 300 304 306 305 303 300 300 301 302 305 307 313 317 324 330 324 319 320 322 319 317 315 314 313 312 311 309 308 309 307 306 305 303 304
293 297 289 299 305 302 300 301 303 300 304 304 307 307 306 304 301 302 303 305 307 310 313 315 321 325 318 314 315 313 311 310 310 308 308 308 308 306 305 305 303 301 301 301
293 293 295 299 302 301 300 299 303 302 304 306 308 308 307 307 304 303 305 306 307 310 314 313 313 316 317 312 312 312 309 308 306 306 306 307 306 305 305 302 301 300 302 302
295 287 288 299 305 306 303 294 304 305 303 303 306 299 302 307 305 305 306 310 307 309 310 311 312 311 309 308 309 308 306 306 306 306 304 305 306 304 304 304 302 304 301 300
294 293 297 305 307 306 293 295 307 307 305 304 302 307 308 309 306 307 308 307 308 308 307 308 309 308 305 302 302 304 304 304 303 303 302 303 303 304 303 302 302 298 299 300
297 293 291 308 305 298 304 308 309 307 306 305 307 310 310 308 305 306 304 308 309 306 306 305 306 304 302 299 300 300 300 299 299 301 302 301 301 302 301 299 299 298 299 298
296 299 309 309 308 310 309 306 306 308 308 309 307 308 310 307 304 305 305 304 308 308 305 303 302 300 298 299 299 299 298 298 298 299 300 301 300 300 300 299 299 299 299 296
300 304 306 308 310 310 311 310 309 310 309 311 308 308 310 306 303 302 302 302 304 305 303 299 299 298 298 298 298 296 296 297 298 299 299 300 301 301 301 301 300 299 297 295
299 303 306 308 308 309 310 311 309 310 310 310 311 308 310 305 304 302 301 301 302 302 301 298 297 296 295 296 297 295 295 296 297 298 299 297 296 300 301 301 299 299 298 298
297 305 305 307 309 310 309 310 310 310 310 312 312 309 309 306 305 302 300 301 300 299 300 299 297 296 295 296 296 295 294 296 296 296 297 295 292 290 289 289 289 289 289 291
305 308 308 310 310 311 310 310 312 311 312 312 313 312 309 306 304 302 300 299 299 298 299 299 297 296 296 297 296 295 293 294 295 296 296 295 294 293 290 288 288 287 287 287
307 307 306 308 307 311 311 311 312 312 313 313 313 313 310 307 305 302 298 299 299 298 298 297 296 296 296 296 296 295 294 294 296 296 295 294 295 293 292 290 288 287 288 288
306 308 308 309 309 310 311 311 310 310 311 312 313 312 310 307 306 303 299 299 298 297 297 297 296 295 296 296 294 294 295 296 297 297 296 295 296 296 295 293 291 289 289 289
306 307 308 307 308 309 310 310 309 310 311 312 311 311 309 309 307 305 300 299 297 296 296 296 295 294 295 294 294 294 295 293 295 297 298 297 297 296 294 294 293 293 293 294
306 305 307 306 307 308 309 310 311 310 312 313 311 311 309 308 307 305 302 299 299 297 296 296 295 296 295 294 294 295 295 296 292 299 298 299 298 297 297 296 296 296 296 293
307 309 310 311 309 309 309 312 313 311 312 312 313 312 308 307 306 305 302 298 295 294 295 294 296 296 295 295 294 294 296 298 299 299 300 298 298 298 298 297 296 295 294 294
307 308 311 311 312 310 310 312 312 314 313 313 311 310 308 307 307 305 304 299 295 292 292 295 294 295 294 293 294 294 296 297 298 299 300 294 299 299 298 296 295 295 296 296
306 307 309 310 311 311 311 313 313 313 313 313 312 309 306 305 306 304 303 300 297 294 293 293 294 294 294 294 293 295 297 298 298 298 299 299 299 298 297 293 297 297 297 296
305 307 309 309 310 311 313 313 312 311 312 313 311 309 309 307 304 303 300 295 296 294 293 293 294 294 295 294 296 297 298 299 298 299 299 299 298 298 298 298 298 297 297 296
305 307 308 307 309 307 309 311 310 310 310 311 311 309 307 304 303 301 300 296 294 289 293 293 293 291 293 290 297 298 299 299 299 300 300 299 299 298 298 298 298 297 297 297
299 303 303 304 305 306 308 309 309 307 307 308 309 307 305 303 302 296 291 293 294 291 293 292 289 288 287 297 298 298 298 298 299 300 300 300 299 299 299 298 298 297 297 296
295 296 298 300 300 302 304 302 303 303 306 306 307 308 304 300 300 300 296 290 288 290 291 290 289 287 292 298 299 299 299 299 298 299 299 293 298 299 298 298 297 297 296 295
294 296 296 297 298 298 300 300 300 302 303 305 306 305 304 303 299 296 296 296 289 292 292 287 287 287 299 300 299 299 298 298 299 298 299 298 297 296 297 298 297 297 296 295
295 296 295 296 297 298 299 300 299 301 301 299 300 301 300 300 298 297 297 296 299 293 298 298 300 297 303 301 301 300 299 299 298 297 297 299 298 298 297 296 296 296 296 295
295 291 296 296 297 296 296 296 297 297 298 297 296 297 296 297 298 300 296 298 300 302 301 301 303 300 304 305 302 300 300 298 296 299 299 299 299 299 298 299 297 297 295 294

GFSNGP_sfc_thetae_207.txt.gz
Theta_e
297 297 297 297 297 298 295 296 288 292 293 296 299 300 301 304 304 303 304 304 306 307 309 312 315 317 317 317 318 315 313 324 322 324 325 323 323 320 318 315 313 311 308 306
293 297 298 296 299 299 299 297 297 296 294 300 302 303 302 303 303 302 302 304 305 306 308 309 313 315 314 316 316 321 317 319 318 319 320 319 317 313 312 309 308 307 307 304
287 296 296 291 297 299 298 298 297 290 295 300 299 301 300 302 301 302 302 304 305 306 307 310 312 314 312 313 315 318 320 318 315 313 311 310 310 308 307 306 306 304 303 303
288 292 284 297 304 302 299 300 298 298 299 302 300 301 304 303 300 302 302 303 306 306 307 308 310 311 312 312 312 313 315 314 312 309 308 308 307 306 305 305 302 301 302 303
286 286 293 298 300 300 297 295 299 297 299 301 301 302 300 305 304 303 303 305 305 307 307 306 307 308 309 308 309 309 309 310 311 308 306 305 304 303 302 301 300 301 302 301
290 285 283 297 303 305 302 289 300 301 298 299 299 294 297 305 300 302 304 304 305 307 305 303 304 305 303 304 304 305 307 307 307 307 305 303 302 301 301 300 299 300 297 296
288 288 293 301 304 305 289 289 302 302 300 299 297 301 305 303 301 303 302 302 304 306 302 301 303 302 300 301 302 304 305 305 304 303 301 301 300 300 299 299 298 296 294 293
290 286 283 304 303 294 299 302 303 302 302 300 301 306 304 304 302 300 301 301 302 304 300 300 301 300 299 299 302 304 304 303 302 302 301 300 298 298 298 297 295 293 291 290
293 291 299 302 298 304 304 302 303 300 303 303 303 306 304 302 301 300 301 301 301 302 298 298 299 299 298 300 302 302 301 299 299 299 299 299 297 296 295 296 294 292 290 289
293 297 299 301 303 304 304 305 304 304 303 305 303 307 303 302 300 300 300 299 300 300 296 295 297 298 298 300 301 300 299 299 299 298 297 297 297 297 295 293 291 290 289 288
292 297 301 302 304 304 306 309 307 306 305 305 307 304 304 300 301 300 299 299 300 297 294 294 296 297 298 300 301 299 299 298 298 295 292 290 290 293 293 293 291 288 288 290
291 299 298 298 302 304 303 304 305 307 305 307 308 307 304 299 298 299 298 298 298 295 294 294 296 296 298 300 301 298 295 295 293 291 290 290 289 288 290 291 291 290 289 289
297 302 301 302 304 306 304 307 308 307 306 306 309 306 305 299 298 299 298 298 297 295 294 295 295 295 297 298 297 295 292 292 291 290 289 289 288 287 285 287 289 289 289 289
302 303 300 302 300 304 306 307 308 308 306 309 309 308 304 300 298 297 297 298 297 295 295 295 295 295 297 297 295 294 293 292 291 290 289 288 287 286 286 285 284 285 287 287
304 304 302 304 305 305 307 308 306 305 305 308 309 308 304 300 297 297 298 298 296 295 294 294 294 295 298 297 296 295 294 292 292 291 290 289 287 287 286 285 285 284 284 287
303 302 302 301 302 303 304 305 306 307 308 308 309 307 303 301 299 298 298 298 295 293 294 294 294 295 297 297 296 295 294 292 292 292 290 288 286 286 286 287 286 286 286 286
299 298 298 299 300 301 302 305 307 308 309 310 309 308 303 300 298 299 298 297 296 294 294 294 294 296 297 296 295 294 294 294 290 291 289 288 287 287 288 289 288 289 290 289
302 299 299 299 300 301 303 305 308 309 307 310 309 308 303 301 297 297 296 296 294 293 293 294 295 296 296 296 295 295 294 295 293 290 290 290 289 289 290 290 290 289 289 289
301 300 301 302 302 302 303 305 308 311 311 311 309 306 305 301 297 296 296 294 293 291 292 294 294 295 295 296 296 296 296 295 293 292 293 290 293 292 291 290 290 290 291 291
300 301 301 301 303 303 304 306 309 310 310 310 310 306 302 300 297 296 294 293 293 293 294 294 294 295 295 295 293 294 296 295 294 294 294 293 292 291 290 289 291 291 291 290
297 298 298 299 299 302 303 307 309 308 309 311 308 305 302 301 299 298 294 291 293 294 294 293 294 295 295 293 294 295 296 295 295 294 293 292 291 291 291 292 292 291 291 290
295 295 297 297 300 301 306 308 308 309 309 311 309 305 302 298 298 297 296 292 293 289 293 294 294 291 292 290 297 297 296 296 295 294 293 292 292 293 292 292 291 291 290 289
295 295 295 296 296 300 305 304 304 306 305 308 307 304 303 299 297 292 290 292 293 291 294 293 289 288 289 297 297 297 297 297 295 294 293 292 294 294 293 292 291 291 290 289
293 294 294 296 298 299 298 301 302 303 304 308 307 305 300 297 296 295 293 289 288 290 293 291 290 288 290 297 297 297 297 297 296 296 295 292 295 294 293 292 291 290 289 289
294 293 294 294 294 295 298 299 301 301 304 304 304 303 300 299 294 292 292 291 287 291 292 287 288 290 297 297 296 296 296 296 295 296 295 295 294 293 292 291 290 289 289 289
293 293 294 294 295 296 296 297 298 300 300 300 300 298 296 295 293 292 292 291 292 290 292 293 296 297 297 297 297 296 295 295 295 295 294 294 293 292 291 291 290 290 290 290
295 293 294 295 295 295 295 295 296 297 297 298 296 295 295 294 292 291 290 292 292 293 294 295 296 296 298 298 296 295 295 296 293 295 294 293 293 292 292 291 290 290 290 290

GFSNGP_sfc_thetae_210.txt.gz
Theta_e
293 295 296 295 295 296 295 293 287 290 291 294 297 298 299 301 301 302 303 303 304 306 307 308 308 310 314 314 315 317 315 319 320 321 323 324 326 324 323 319 315 312 310 308
290 295 295 294 297 298 297 296 294 294 292 298 300 300 300 300 300 300 302 302 303 305 307 306 306 308 310 312 312 315 316 316 321 321 319 315 313 312 315 312 310 308 307 305
285 293 293 289 297 298 296 297 295 288 293 296 297 298 299 299 299 300 301 302 303 304 306 306 305 306 306 309 311 313 316 313 313 313 313 311 309 307 307 307 306 305 303 303
285 289 282 295 303 302 299 300 297 296 296 298 298 298 301 300 299 299 300 301 302 304 305 304 304 305 305 308 308 310 311 310 309 309 309 308 307 305 303 303 302 302 302 301
285 284 291 297 298 298 295 294 298 296 297 299 299 299 297 302 301 300 299 300 301 303 305 302 302 303 303 304 306 307 308 308 308 308 306 305 302 302 302 302 301 300 300 299
288 283 277 293 300 303 300 288 298 298 297 297 297 293 294 301 301 299 299 300 300 303 302 300 300 302 301 302 303 303 304 306 306 305 303 301 301 301 302 301 299 299 298 297
286 285 290 299 302 304 287 287 298 300 298 297 295 297 302 300 298 298 298 299 301 303 299 298 300 300 299 300 301 303 302 302 302 302 301 300 300 300 299 298 298 297 296 294
286 284 282 302 300 291 294 299 300 299 299 298 299 302 300 299 298 298 300 299 299 300 297 298 299 299 298 298 302 303 302 300 300 300 301 300 298 297 297 296 295 294 293 294
289 288 295 298 296 299 300 299 300 300 301 300 299 302 299 298 298 297 298 298 300 297 296 296 298 298 297 299 301 299 298 298 298 298 298 298 296 295 294 294 294 293 293 291
290 292 295 297 300 302 301 300 302 302 302 302 299 301 297 297 296 296 295 297 300 296 294 294 296 298 299 301 301 299 297 296 296 296 296 297 297 296 294 293 291 291 290 289
289 293 296 298 299 300 303 304 303 303 304 302 304 301 299 297 296 294 294 297 297 294 294 294 296 297 300 301 300 298 297 296 294 293 292 292 293 294 292 292 292 290 289 290
287 294 293 295 299 303 300 301 302 302 304 304 305 302 300 296 295 293 293 298 295 294 294 295 296 297 298 299 298 295 294 293 293 292 292 292 290 289 290 291 291 290 290 289
293 297 298 300 301 303 301 303 305 303 304 304 304 302 299 296 294 296 296 296 294 294 295 295 296 295 295 295 294 293 291 291 292 291 290 289 290 289 287 288 290 289 289 289
300 299 297 301 300 303 303 305 306 305 305 306 305 302 299 296 295 296 296 295 295 295 295 295 295 294 295 294 293 291 291 291 289 289 289 289 289 289 288 287 285 285 287 289
299 301 302 302 300 301 302 303 303 304 305 306 306 301 299 296 294 296 297 296 295 294 294 295 295 294 295 294 293 292 291 290 289 289 288 288 287 287 287 285 285 284 286 289
303 301 300 299 299 299 300 300 300 302 305 306 306 302 300 298 296 296 295 294 293 292 294 294 294 295 297 296 294 292 291 290 289 289 288 287 286 285 285 285 286 288 288 286
297 295 296 296 297 297 298 300 302 303 305 306 306 302 299 298 295 297 296 295 294 294 294 295 294 296 295 295 294 293 292 291 288 289 288 287 287 287 287 287 288 288 287 287
298 298 296 296 297 298 299 300 302 304 304 307 305 302 299 298 296 295 295 294 294 293 294 295 296 296 295 295 295 294 293 293 290 288 288 289 288 289 289 289 289 288 288 288
299 299 298 299 299 299 299 300 302 303 304 309 305 302 300 298 296 295 295 293 292 291 292 295 295 295 295 295 295 295 295 291 289 289 290 288 289 289 289 289 289 289 289 288
298 298 298 297 299 298 297 299 300 301 305 307 305 302 298 296 295 294 294 292 292 292 294 295 295 295 295 295 293 295 294 291 291 291 291 290 290 290 289 288 289 289 289 288
295 296 296 297 297 298 299 301 301 302 306 306 304 301 297 294 294 294 292 290 292 294 294 294 295 295 294 293 294 294 294 294 293 292 291 290 290 290 290 290 290 290 289 288
293 294 294 295 295 296 299 302 303 304 306 305 304 302 299 296 295 295 295 292 293 289 294 295 295 290 293 290 297 294 294 293 292 292 291 290 290 290 290 290 289 289 289 288
295 293 294 294 295 295 300 301 302 303 306 304 302 301 299 297 295 292 289 293 293 291 294 295 289 287 287 296 297 296 294 293 292 291 291 292 291 291 290 289 289 289 288 287
293 293 293 295 295 297 296 298 301 301 304 305 304 301 298 295 294 294 293 290 289 290 293 291 291 288 288 296 296 296 294 292 293 293 294 290 291 291 290 289 289 288 287 287
294 294 293 294 293 294 295 297 299 301 305 303 302 300 299 297 294 292 293 292 288 291 291 287 288 288 295 296 295 295 295 295 294 294 293 292 291 290 290 289 288 288 288 288
293 293 293 294 294 295 295 296 296 300 300 298 297 296 294 294 293 292 292 292 292 290 292 292 294 296 297 296 295 296 295 294 294 294 292 291 290 290 289 288 288 288 288 288
294 293 294 294 295 295 294 294 295 297 297 296 294 294 293 292 291 291 290 292 292 293 293 294 295 294 296 296 294 295 294 294 293 293 292 291 290 290 289 289 288 288 288 289

GFSNGP_sfc_thetae_216.txt.gz
Theta_e
289 291 292 292 292 292 290 291 286 289 289 294 294 294 296 298 298 299 300 302 302 302 302 303 303 303 303 303 304 305 306 307 309 311 316 319 322 327 326 325 320 315 313 311
287 292 292 291 294 295 294 294 293 293 291 296 296 297 297 298 298 298 300 302 302 302 301 301 303 302 302 302 302 304 305 307 311 314 315 318 321 323 318 313 312 310 308 306
284 290 290 287 293 295 294 295 293 288 293 294 295 296 297 297 298 297 300 301 300 300 300 301 302 301 300 300 303 304 305 308 312 312 312 315 314 312 310 307 305 302 300 299
285 287 281 291 299 299 297 297 297 295 297 297 296 297 298 299 296 299 300 300 300 300 300 302 301 300 300 300 302 303 303 306 309 308 308 309 307 305 302 301 300 298 297 297
285 284 289 293 297 296 293 292 296 296 297 297 298 297 296 298 300 300 299 299 299 300 301 300 299 299 299 300 302 301 301 303 304 306 305 304 303 302 301 299 298 296 295 295
287 284 277 289 298 301 297 286 296 297 296 296 295 292 295 298 300 300 299 298 297 300 300 297 297 298 298 299 299 298 301 302 303 304 303 301 300 299 299 298 296 295 293 295
283 286 289 295 298 299 285 287 295 297 298 297 294 296 300 298 300 298 297 296 299 298 296 296 297 298 298 298 297 299 301 300 301 301 301 300 299 299 297 295 293 292 292 293
285 283 282 296 295 289 292 295 298 299 299 297 298 298 298 301 299 297 295 296 298 295 294 296 298 298 297 296 298 299 298 298 298 299 301 299 298 296 295 294 291 291 290 290
287 287 293 294 293 296 296 296 297 297 298 298 297 298 298 299 297 295 294 297 296 294 294 296 297 299 296 296 297 298 297 296 296 296 296 296 295 293 292 291 290 290 290 290
288 289 291 293 295 296 297 296 297 298 299 299 297 299 299 297 295 293 296 296 294 294 294 295 297 297 296 296 296 296 295 295 295 295 295 295 295 293 291 291 291 291 290 289
287 290 292 294 295 295 297 300 300 301 300 300 300 300 299 296 294 293 296 295 294 294 294 294 295 295 296 296 296 294 293 292 292 291 291 290 291 293 293 294 293 291 291 291
284 290 290 292 295 298 297 299 299 300 301 303 302 301 298 294 293 296 295 294 293 295 294 294 293 293 294 295 295 294 292 292 292 291 291 291 290 290 291 291 291 290 290 291
291 294 294 296 297 299 299 300 300 300 300 301 303 301 298 294 296 297 294 293 293 294 294 294 292 292 293 293 293 292 292 292 291 290 290 290 290 289 288 290 291 290 290 290
295 295 293 295 295 300 300 301 301 300 300 301 303 300 297 295 297 296 292 293 295 295 294 293 292 291 293 293 292 291 291 292 291 291 290 291 291 291 291 290 288 288 289 289
296 296 296 297 297 297 299 299 298 297 298 299 303 301 297 295 297 296 292 294 295 295 295 293 292 291 292 292 291 290 289 289 290 290 290 290 290 291 290 289 288 288 288 288
296 296 297 297 297 297 297 297 296 297 298 299 300 300 299 296 297 295 294 294 293 293 293 293 292 292 292 291 290 290 289 290 290 289 288 289 290 290 289 288 288 287 287 287
293 293 293 294 294 295 295 297 298 298 298 299 299 300 296 295 295 296 294 294 295 294 294 293 293 294 293 292 290 290 289 289 287 288 289 290 289 288 288 288 287 286 286 286
295 294 294 295 295 295 295 297 296 296 296 298 299 298 297 295 296 294 293 294 294 294 294 294 295 294 293 293 292 290 290 289 289 289 290 289 288 288 288 287 287 286 286 285
298 296 297 296 296 295 295 295 295 296 298 299 299 299 298 298 296 294 294 292 293 292 292 295 294 294 293 292 291 291 290 290 289 289 289 288 288 288 288 287 287 287 287 286
294 295 294 295 296 295 294 295 295 298 299 300 300 301 298 296 296 294 294 292 293 293 294 295 295 293 292 293 291 291 291 290 290 290 290 289 288 287 287 286 287 286 286 285
293 293 293 294 294 295 295 294 296 296 299 301 300 300 297 296 296 294 292 290 293 294 295 294 295 294 294 292 292 292 293 291 290 290 289 289 288 288 288 288 287 286 285 284
291 291 293 294 294 294 295 295 295 298 300 301 303 299 296 295 295 294 294 292 293 289 294 295 294 289 292 289 292 293 293 291 291 291 290 289 289 288 288 288 287 286 285 285
290 291 294 294 293 293 295 296 298 298 298 299 300 297 296 295 295 292 289 293 294 291 295 294 288 288 288 295 294 293 292 292 291 291 290 290 289 289 288 287 287 286 285 284
291 292 292 294 295 294 293 295 296 297 299 300 301 299 296 294 294 294 293 290 289 292 294 292 290 287 290 296 294 293 292 292 291 291 290 288 289 289 288 287 286 286 285 284
291 292 293 293 293 293 294 295 295 296 298 301 300 298 297 297 294 292 293 293 288 293 293 288 287 289 296 294 293 293 292 292 291 291 290 290 289 288 288 288 287 286 285 284
290 291 293 294 294 294 295 295 293 295 297 296 296 296 296 294 293 293 293 293 294 292 294 293 295 296 295 294 293 293 293 291 291 291 290 290 289 289 288 288 287 287 286 284
293 292 293 294 295 295 295 294 293 294 295 294 294 294 293 293 292 292 291 293 294 294 295 294 295 294 295 295 294 293 293 292 290 291 290 290 289 289 289 288 287 286 285 284

GFSNGP_sfc_thetae_219.txt.gz
Theta_e
296 296 296 296 296 297 295 297 293 297 297 301 304 304 305 307 307 307 307 308 310 309 307 305 305 304 303 302 304 304 304 304 305 307 310 314 316 320 325 329 331 331 326 321
292 296 297 295 298 298 299 299 298 299 298 305 306 307 306 306 306 305 306 309 309 307 305 303 303 303 302 301 301 302 303 304 305 309 316 317 320 322 324 318 317 315 314 311
290 296 296 293 297 299 300 301 300 295 300 305 305 305 305 306 307 306 307 309 308 305 303 303 302 302 299 299 301 302 303 304 307 310 313 312 314 313 311 309 309 306 304 303
291 294 286 297 304 303 301 302 303 303 303 304 306 307 307 309 307 307 309 308 306 302 302 302 301 300 299 300 301 301 301 303 306 308 308 307 305 305 304 303 302 300 300 300
291 291 295 298 300 300 298 298 303 302 303 305 306 306 305 309 309 308 309 307 305 303 302 301 300 298 299 299 300 299 300 301 304 305 305 304 302 300 300 299 298 297 298 297
294 289 286 296 301 302 304 293 302 303 304 303 305 297 300 310 309 310 308 306 302 302 301 300 298 299 298 298 298 297 299 301 302 302 301 300 299 298 297 297 296 296 296 296
292 291 295 301 301 303 292 294 303 304 305 305 302 304 308 310 310 309 306 304 303 301 297 299 298 299 298 297 296 298 299 300 301 300 299 298 297 296 296 295 295 294 294 294
293 290 288 300 300 295 300 304 304 305 305 304 306 307 308 309 309 306 304 303 301 297 298 298 298 297 296 295 297 298 298 297 297 298 298 296 295 294 294 294 293 292 292 291
297 297 301 301 300 303 303 303 304 304 306 307 306 307 308 308 307 304 302 301 298 298 297 297 297 297 294 295 296 297 296 295 295 295 294 294 293 293 293 293 292 291 291 290
294 297 299 300 302 302 303 303 306 306 307 307 306 307 308 309 305 303 301 298 297 296 295 294 295 295 295 296 296 294 292 293 294 293 292 292 292 292 291 291 291 290 289 290
295 298 300 301 302 302 303 304 304 306 306 305 308 308 308 306 303 300 300 298 297 295 295 293 294 293 294 295 296 293 293 293 292 292 291 290 290 290 291 292 292 291 291 292
292 299 299 300 303 304 303 303 304 305 304 305 308 307 307 305 302 300 299 297 297 296 294 293 293 291 292 294 295 293 292 292 292 292 291 291 289 288 291 291 291 291 291 293
299 302 302 303 304 305 303 305 306 305 304 303 306 307 306 304 301 299 299 296 296 296 294 293 291 289 292 293 293 292 291 291 291 291 291 290 290 290 289 290 290 291 290 290
302 302 299 302 302 304 305 305 305 305 305 305 305 307 305 304 302 299 298 296 297 297 294 293 290 288 292 293 292 292 292 292 291 291 291 291 292 293 292 290 289 289 289 289
302 303 303 304 304 305 303 303 303 303 303 302 304 303 305 304 301 298 299 297 297 296 295 292 289 289 292 292 291 291 291 290 291 292 293 294 294 293 292 292 291 290 291 289
302 303 303 302 303 302 302 302 301 301 301 301 302 303 305 303 300 299 297 297 295 294 294 291 290 291 292 292 292 291 290 290 290 293 294 294 293 293 293 292 292 292 291 290
300 300 301 300 299 299 299 301 301 301 301 301 302 304 304 301 299 298 297 296 296 295 294 292 290 292 292 292 292 291 291 292 288 294 293 293 293 293 293 292 291 290 290 289
302 301 301 300 298 298 298 299 299 300 300 301 302 303 301 300 299 297 297 296 296 295 294 294 292 292 292 292 292 292 292 293 293 293 294 293 294 294 293 292 290 289 289 288
300 298 299 298 298 298 298 298 299 299 300 299 299 300 301 302 300 297 296 296 294 293 293 294 293 292 292 292 292 293 292 292 293 294 293 291 293 293 293 292 291 290 290 290
299 299 298 298 299 298 296 296 297 298 300 300 301 301 300 300 298 296 297 295 297 295 295 295 294 292 292 293 292 293 293 293 293 293 294 293 293 292 292 289 290 289 289 289
298 298 298 298 298 297 296 296 296 297 299 302 302 301 302 299 297 296 295 294 296 296 295 294 293 293 293 292 294 293 294 293 293 293 293 292 293 292 292 291 290 289 288 288
299 298 298 298 297 296 297 297 297 297 299 301 302 303 301 296 296 297 297 295 295 289 294 295 293 290 291 289 296 294 294 294 293 293 293 293 293 292 291 290 289 289 288 288
299 298 298 297 297 297 298 297 297 298 298 299 301 300 298 297 297 293 291 295 295 292 295 293 289 287 287 295 296 295 294 293 293 293 293 294 293 293 292 291 290 289 288 288
299 299 298 298 299 298 296 297 297 297 298 300 302 303 298 295 295 297 295 291 289 292 293 291 289 287 290 296 295 295 294 293 293 294 294 290 293 292 291 291 290 288 287 287
299 300 299 298 298 294 295 297 298 298 297 299 302 300 299 298 296 295 295 294 288 293 293 288 287 288 297 296 294 294 294 294 294 294 294 293 293 292 291 290 289 288 288 288
300 301 301 299 297 297 296 297 297 297 296 296 297 296 295 295 295 296 294 293 294 292 295 298 297 298 297 295 295 295 295 294 294 294 293 293 293 292 291 290 289 288 288 288
300 295 300 299 298 298 297 297 298 295 295 296 294 294 294 294 294 294 292 294 294 295 296 298 297 295 297 297 296 296 296 296 293 295 294 294 293 293 292 291 290 288 288 288